SWISSCUBE (35932 NORAD) Tracking and Keplerian Element Data

This shows tracking and keplerian element data for the satellite.

Feedback or suggestion? Click here.




ElementValue
Catalog35932
NameSWISSCUBE
Epoch Orbit86300
Epoch Day354.23096662
Epoch Year2025
RAAN253.946
Inclination98.4147
Eccentricity0.0007961
Argument of Perigee54.4223
Mean Anonmoly305.7718
Mean Motion14.61977298
Decay Rate9.51E-06
L11 35932U 09051B 25354.23096662 .00000951 00000+0 19964-3 0 9996
L22 35932 98.4147 253.9460 0007961 54.4223 305.7718 14.61977298863001



Live tracking and technical data element details for SWISSCUBE (NORAD 35932). SWISSCUBE can be tracked NOW for your location showing map with azimuth and elevation plus other details from your city location.







IsCatalogInMostPopularTable: catalog: 35932, numindb: 25853
Update: records affected: 1



GetName: 35932 SWISSCUBE

Hit Count: updated at: Thu, 21 May 2026 11:07:09 GMT